Content
SEND FEEDBACK

Daily
Averages
Monthly
Summary
United States of America

LINCOLNTON, GEORGIA


Home > North America > United States > Georgia
Elevation: 50 feet     Latitude: 33 47N     Longitude: 082 28W

WEATHER
 
SELECT A DAY
Number of Records: 250,025;   Date Range: 6/20/03 - 8/12/14
 
SHARE

PRINT THIS DATA

[ ← Previous Day ]
WEATHER ALMANAC - JANUARY 23, 2013
[ Next Day → ]
[ °C ]   °F
Weather ElementAverageHighLow
Temperature40.5 °F53.6 °F (3:35 pm)26.4 °F (6:55 am)
Dewpoint26.9 °F40.1 °F (11:55 pm)18.3 °F (5:55 am)
Humidity60 %80 % (6:55 am)41 % (10:55 am)
Barometer30.32 in30.42 in (9:55 am)30.21 in (11:15 pm)
Wind Speed4.8 mph13.8 mph (12:55 pm)
Wind Gust20.7 mph (12:55 pm)
Weather ElementAverage
Visibility10 mi
Wind DirectionSSW (209.9 °)

Weather ElementTotal
Precipitation---
Heating Degree Days25 (Base 65)
Averaged from 69 records on January 23, 2013
WEATHER CONDITIONS BREAKOUT
WIND DIRECTION BREAKOUT
WEATHER BY HOUR - JANUARY 23, 2013
[ °C ]   °F
Local TimeTemperatureDewpointHumidityBarometerVisibilityWind DirectionWind SpeedGust SpeedPrecipitationEventsConditions
12:35 AM32.0 °F21.0 °F64 %30.34 in10.0 miCalmClear
1:15 AM30.9 °F21.7 °F69 %30.34 in10.0 miCalmClear
1:35 AM31.5 °F20.8 °F65 %30.35 in10.0 miNW (310°)4.6 mphClear
1:55 AM31.1 °F20.1 °F64 %30.35 in10.0 miWNW (290°)3.5 mphClear
2:15 AM31.1 °F20.5 °F65 %30.35 in10.0 miCalmClear
2:35 AM31.1 °F19.6 °F62 %30.35 in10.0 miWNW (300°)3.5 mphClear
2:55 AM30.6 °F19.4 °F63 %30.36 in10.0 miNW (310°)3.5 mphClear
3:15 AM28.8 °F21.9 °F76 %30.36 in10.0 miWNW (300°)3.5 mphClear
3:35 AM29.5 °F20.7 °F70 %30.36 in10.0 miWNW (300°)3.5 mphClear
3:55 AM29.8 °F19.9 °F67 %30.35 in10.0 miWNW (290°)3.5 mphClear
4:15 AM29.8 °F19.8 °F66 %30.35 in10.0 miCalmClear
4:35 AM29.8 °F19.4 °F65 %30.34 in10.0 miWNW (300°)3.5 mphClear
4:55 AM29.3 °F19.8 °F68 %30.35 in10.0 miWNW (300°)4.6 mphClear
5:15 AM30.0 °F18.7 °F63 %30.36 in10.0 miNW (310°)3.5 mphClear
5:35 AM29.3 °F18.5 °F64 %30.36 in10.0 miWNW (300°)3.5 mphClear
5:55 AM28.9 °F18.3 °F65 %30.36 in10.0 miWNW (300°)3.5 mphClear
6:15 AM28.4 °F18.3 °F66 %30.36 in10.0 miCalmClear
6:35 AM27.3 °F19.8 °F73 %30.38 in10.0 miCalmClear
6:55 AM26.4 °F21.0 °F80 %30.38 in10.0 miWest (270°)3.5 mphClear
7:15 AM26.4 °F19.8 °F76 %30.39 in10.0 miCalmClear
7:35 AM27.5 °F19.6 °F72 %30.39 in10.0 miWest (260°)3.5 mphClear
7:55 AM27.5 °F20.1 °F74 %30.39 in10.0 miCalmClear
8:15 AM28.9 °F22.3 °F76 %30.39 in10.0 miCalmClear
8:55 AM32.9 °F21.4 °F63 %30.41 in10.0 miWest (260°)3.5 mphClear
9:15 AM35.2 °F20.8 °F56 %30.41 in10.0 miWest (270°)3.5 mphClear
9:35 AM37.4 °F20.5 °F51 %30.41 in10.0 miWNW (290°)5.8 mphClear
9:55 AM39.4 °F20.5 °F47 %30.42 in10.0 miWNW (290°)6.9 mphClear
10:15 AM41.9 °F21.0 °F43 %30.42 in10.0 miWest (280°)5.8 mphClear
10:35 AM43.2 °F21.4 °F42 %30.42 in10.0 miWNW (300°)6.9 mphClear
10:55 AM44.8 °F22.3 °F41 %30.42 in10.0 miWest (280°)5.8 mphClear
11:15 AM45.7 °F23.5 °F42 %30.41 in10.0 miWest (270°)4.6 mphClear
11:35 AM46.6 °F24.6 °F42 %30.40 in10.0 miNW (310°)6.9 mphClear
11:55 AM47.1 °F25.0 °F42 %30.40 in10.0 miWest (270°)4.6 mphClear
12:15 PM48.4 °F27.0 °F43 %30.38 in10.0 miWNW (290°)11.5 mphClear
12:35 PM49.1 °F28.4 °F45 %30.36 in10.0 miWNW (300°)9.2 mphClear
12:55 PM50.2 °F29.3 °F45 %30.35 in10.0 miWNW (290°)13.8 mph20.7 mphClear
1:15 PM50.0 °F28.6 °F44 %30.34 in10.0 miWNW (290°)9.2 mph20.7 mphClear
1:35 PM51.1 °F29.5 °F43 %30.32 in10.0 miWest (270°)11.5 mphClear
1:55 PM51.1 °F29.5 °F43 %30.31 in10.0 miWest (280°)8.1 mphClear
2:15 PM51.8 °F29.3 °F42 %30.29 in10.0 miWest (260°)10.4 mphClear
2:35 PM52.3 °F30.0 °F42 %30.28 in10.0 miWest (270°)8.1 mphClear
2:55 PM52.7 °F30.2 °F42 %30.28 in10.0 miWest (270°)5.8 mphClear
3:15 PM53.2 °F31.3 °F43 %30.28 in10.0 miWSW (250°)10.4 mphClear
3:35 PM53.6 °F31.8 °F44 %30.28 in10.0 miWest (280°)11.5 mph17.3 mphClear
3:55 PM53.2 °F32.0 °F44 %30.28 in10.0 miWest (260°)9.2 mphClear
4:15 PM53.4 °F32.2 °F44 %30.28 in10.0 miWest (280°)9.2 mphClear
4:35 PM53.4 °F32.4 °F45 %30.26 in10.0 miWSW (240°)6.9 mphClear
4:55 PM52.9 °F32.9 °F47 %30.26 in10.0 miSW (230°)5.8 mphClear
5:15 PM52.0 °F33.1 °F49 %30.26 in10.0 miWSW (240°)4.6 mphClear
5:35 PM50.4 °F32.9 °F51 %30.26 in10.0 miWSW (240°)4.6 mphClear
5:55 PM48.9 °F32.9 °F54 %30.26 in10.0 miSW (220°)4.6 mphClear
6:15 PM46.6 °F32.9 °F59 %30.25 in10.0 miSW (220°)3.5 mphClear
6:35 PM45.1 °F33.1 °F63 %30.26 in10.0 miCalmClear
6:55 PM42.8 °F32.7 °F68 %30.26 in10.0 miCalmClear
7:15 PM41.0 °F32.7 °F72 %30.26 in10.0 miCalmClear
7:35 PM40.3 °F32.7 °F74 %30.25 in10.0 miSouth (190°)3.5 mphClear
7:55 PM39.6 °F32.7 °F76 %30.25 in10.0 miCalmClear
8:15 PM39.2 °F32.4 °F76 %30.24 in10.0 miCalmClear
8:35 PM39.6 °F32.4 °F75 %30.24 in10.0 miSouth (190°)3.5 mphClear
8:55 PM41.0 °F32.9 °F73 %30.23 in10.0 miSouth (190°)4.6 mphClear
9:15 PM41.4 °F33.3 °F73 %30.23 in10.0 miSSW (200°)5.8 mphClear
9:35 PM41.9 °F34.2 °F74 %30.24 in10.0 miSSW (200°)5.8 mphMostly Cloudy
9:55 PM44.2 °F35.8 °F72 %30.23 in10.0 miSSW (210°)4.6 mphMostly Cloudy
10:15 PM44.8 °F36.3 °F72 %30.23 in10.0 miSW (220°)5.8 mphScattered Clouds
10:35 PM45.0 °F36.5 °F72 %30.22 in10.0 miSSW (210°)5.8 mphScattered Clouds
10:55 PM45.3 °F36.7 °F72 %30.22 in10.0 miSW (230°)6.9 mphScattered Clouds
11:15 PM45.7 °F37.6 °F73 %30.21 in10.0 miSW (230°)5.8 mphClear
11:35 PM47.1 °F38.7 °F72 %30.22 in10.0 miSW (230°)6.9 mphMostly Cloudy
11:55 PM48.9 °F40.1 °F72 %30.21 in10.0 miWSW (240°)9.2 mph16.1 mphOvercast
Hourly data recorded from KHQU, located miles away from Lincolnton, Georgia







STORIES FROM OUR PARTNERS